Weather History for KEKN - March, 2013

Change the Weather History Date:

Wednesday, March 6, 2013

  Actual Average Record
Temperature  
Mean Temperature 32 °F 37 °F  
Max Temperature 35 °F 48 °F 77 °F (1946)
Min Temperature 29 °F 25 °F -10 °F (2015)
Degree Days  
Heating Degree Days 33 28  
Month to date heating degree days 220 174  
Since 1 July heating degree days 4467 4495  
Cooling Degree Days 0 0  
Month to date cooling degree days 0 0  
Year to date cooling degree days 0 0  
Moisture  
Dew Point 28 °F    
Average Humidity 85    
Maximum Humidity 92    
Minimum Humidity 78    
Precipitation  
Precipitation 0.34 in 0.12 in 1.92 in (1967)
Month to date precipitation 0.53 0.71  
Year to date precipitation 7.14 7.04  
Snow  
Snow 4.70 in - - ()
Month to date snowfall 6.6  
Since 1 September snowfall 65.3  
Snow Depth 4.00 in    
Sea Level Pressure  
Sea Level Pressure 29.80 in    
Wind  
Wind Speed 6 mph (NNW)    
Max Wind Speed 32 mph    
Max Gust Speed 40 mph    
Visibility 4 miles    
Events Fog , Snow    
T = Trace of Precipitation, MM = Missing Value Source: NWS Daily Summary

Daily Weather History Graph

Daily Weather History Graph

Search for Another Location

Airport or City:

Trip Planner

Search our weather history database for the weather conditions in past years. The results will help you decide how hot, cold, wet, or windy it might be!

Date:

Astronomy

Mar. 06, 2013 Rise Set
Actual Time 6:44 AM EST 6:17 PM EST
Civil Twilight 6:17 AM EST 6:44 PM EST
Nautical Twilight 5:46 AM EST 7:15 PM EST
Astronomical Twilight 5:15 AM EST 7:46 PM EST
Moon 2:49 AM EST (3/6) 1:00 PM EST (3/6)
Length of Visible Light 12h 26m
Length of Day
11h 33m
Waning Crescent, 30% of the Moon is Illuminated
Mar 6
Waning Crescent
Mar 11
New
Mar 19
First Quarter
Mar 27
Full
Apr 3
Last Quarter

Hourly Weather History & Observations

Time (EST) Temp. Windchill Dew Point Humidity Pressure Visibility Wind Dir Wind Speed Gust Speed Precip Events Conditions
12:00 AM 35.6 °F 30.7 °F 30.2 °F 81% 29.58 in 1.8 mi Variable 5.8 mph - 0.01 in Snow Light Snow
12:46 AM 33.8 °F 25.8 °F 30.2 °F 87% 29.60 in 1.0 mi South 10.4 mph - 0.05 in Snow Light Snow
12:51 AM 33.1 °F 27.7 °F 30.9 °F 92% 29.65 in 1.0 mi Variable 5.8 mph - 0.06 in Snow Light Snow
1:12 AM 32.0 °F 26.4 °F 30.2 °F 93% 29.60 in 1.2 mi SSW 5.8 mph - 0.02 in Snow Light Snow
1:16 AM 33.8 °F - 30.2 °F 87% 29.60 in 0.8 mi Calm Calm - 0.03 in Snow Light Snow
1:25 AM 33.8 °F - 30.2 °F 87% 29.60 in 1.0 mi Calm Calm - 0.04 in Snow Light Snow
1:34 AM 33.8 °F - 30.2 °F 87% 29.61 in 1.5 mi Calm Calm - 0.04 in Snow Light Snow
1:47 AM 33.8 °F - 30.2 °F 87% 29.61 in 0.5 mi Calm Calm - 0.06 in Fog , Snow Snow
1:51 AM 33.1 °F - 30.0 °F 89% 29.66 in 0.8 mi Calm Calm - 0.06 in Snow Light Snow
1:59 AM 32.0 °F 28.7 °F 30.2 °F 93% 29.63 in 0.8 mi WNW 3.5 mph - 0.01 in Snow Light Snow
2:06 AM 32.0 °F 27.5 °F 30.2 °F 93% 29.63 in 1.0 mi Variable 4.6 mph - 0.02 in Snow Light Snow
2:17 AM 32.0 °F 28.7 °F 30.2 °F 93% 29.63 in 1.0 mi NW 3.5 mph - 0.03 in Snow Light Snow
2:22 AM 32.0 °F - 30.2 °F 93% 29.64 in 0.8 mi Calm Calm - 0.04 in Snow Light Snow
2:38 AM 32.0 °F - 30.2 °F 93% 29.64 in 0.5 mi Calm Calm - 0.07 in Fog , Snow Snow
2:44 AM 32.0 °F 24.8 °F 30.2 °F 93% 29.64 in 0.5 mi North 8.1 mph - 0.08 in Fog , Snow Snow
2:51 AM 32.0 °F 24.2 °F 30.0 °F 92% 29.68 in 0.5 mi North 9.2 mph - 0.11 in Fog , Snow Snow
3:23 AM 30.2 °F 25.4 °F 28.4 °F 93% 29.64 in 0.8 mi North 4.6 mph - 0.07 in Snow Light Snow
3:38 AM 30.2 °F - 26.6 °F 86% 29.64 in 1.0 mi Calm Calm - 0.08 in Snow Light Snow
3:51 AM 30.0 °F 24.1 °F 26.1 °F 85% 29.69 in 2.0 mi West 5.8 mph - 0.08 in Snow Light Snow
4:03 AM 30.2 °F 23.4 °F 26.6 °F 86% 29.65 in 2.0 mi NNW 6.9 mph - 0.01 in Snow Light Snow
4:16 AM 30.2 °F 25.4 °F 26.6 °F 86% 29.65 in 1.5 mi NNW 4.6 mph - 0.01 in Snow Light Snow
4:30 AM 30.2 °F - 26.6 °F 86% 29.66 in 2.0 mi Calm Calm - 0.01 in Snow Light Snow
4:43 AM 30.2 °F 26.7 °F 26.6 °F 86% 29.66 in 3.0 mi WNW 3.5 mph - 0.01 in Snow Light Snow
4:51 AM 30.0 °F 26.5 °F 26.1 °F 85% 29.71 in 4.0 mi North 3.5 mph - 0.01 in Snow Light Snow
5:01 AM 30.2 °F - 26.6 °F 86% 29.67 in 4.0 mi Calm Calm - 0.00 in Snow Light Snow
5:10 AM 30.2 °F 26.7 °F 26.6 °F 86% 29.67 in 6.0 mi NNW 3.5 mph - 0.00 in Snow Light Snow
5:18 AM 30.2 °F 23.4 °F 26.6 °F 86% 29.68 in 7.0 mi North 6.9 mph - 0.00 in Snow Light Snow
5:51 AM 28.9 °F 21.9 °F 25.0 °F 85% 29.74 in 6.0 mi North 6.9 mph - 0.00 in Snow Light Snow
6:04 AM 28.4 °F 23.3 °F 24.8 °F 86% 29.69 in 6.0 mi North 4.6 mph - 0.00 in Snow Light Snow
6:33 AM 28.4 °F 23.3 °F 24.8 °F 86% 29.71 in 5.0 mi NNE 4.6 mph - N/A Snow Light Snow
6:51 AM 28.9 °F - 25.0 °F 85% 29.76 in 4.0 mi Calm Calm - 0.00 in Snow Light Snow
6:58 AM 28.4 °F 24.6 °F 24.8 °F 86% 29.71 in 1.8 mi North 3.5 mph - 0.00 in Snow Light Snow
7:26 AM 28.4 °F 23.3 °F 24.8 °F 86% 29.72 in 2.0 mi North 4.6 mph - 0.00 in Snow Light Snow
7:35 AM 28.4 °F 23.3 °F 24.8 °F 86% 29.73 in 1.5 mi North 4.6 mph - 0.00 in Snow Light Snow
7:47 AM 28.4 °F 21.2 °F 24.8 °F 86% 29.73 in 1.8 mi North 6.9 mph - 0.00 in Snow Light Snow
7:51 AM 28.9 °F 21.1 °F 25.0 °F 85% 29.79 in 1.8 mi NNW 8.1 mph - 0.00 in Snow Light Snow
8:00 AM 28.4 °F 21.2 °F 24.8 °F 86% 29.74 in 2.0 mi North 6.9 mph - 0.00 in Snow Light Snow
8:13 AM 28.4 °F 16.2 °F 24.8 °F 86% 29.74 in 2.0 mi NNW 17.3 mph 32.2 mph 0.00 in Snow Light Snow
8:51 AM 28.9 °F 16.9 °F 25.0 °F 85% 29.83 in 1.8 mi NNW 17.3 mph 33.4 mph 0.00 in Snow Light Snow
9:00 AM 28.4 °F 12.5 °F 24.8 °F 86% 29.77 in 1.2 mi NNW 31.1 mph - 0.00 in Snow Light Snow
9:25 AM 28.4 °F 19.1 °F 24.8 °F 86% 29.78 in 2.0 mi NNW 10.4 mph 34.5 mph 0.01 in Snow Light Snow
9:33 AM 28.4 °F 19.7 °F 24.8 °F 86% 29.79 in 1.8 mi NNW 9.2 mph 34.5 mph 0.01 in Snow Light Snow
9:51 AM 28.9 °F 22.8 °F 25.0 °F 85% 29.86 in 1.5 mi Variable 5.8 mph 33.4 mph 0.01 in Snow Light Snow
10:51 AM 30.0 °F 25.2 °F 25.0 °F 82% 29.89 in 2.0 mi North 4.6 mph - 0.01 in Snow Light Snow
11:11 AM 30.2 °F 17.8 °F 24.8 °F 80% 29.83 in 3.0 mi NW 19.6 mph 34.5 mph 0.00 in Snow Light Snow
11:51 AM 30.0 °F - 26.1 °F 85% 29.93 in 6.0 mi Calm Calm - 0.00 in Snow Light Snow
12:51 PM 30.9 °F 27.5 °F 27.0 °F 85% 29.94 in 7.0 mi North 3.5 mph - 0.00 in   Overcast
1:12 PM 30.2 °F 25.4 °F 26.6 °F 86% 29.88 in 8.0 mi North 4.6 mph - 0.00 in   Overcast
1:31 PM 30.2 °F 24.3 °F 26.6 °F 86% 29.88 in 1.8 mi Variable 5.8 mph - 0.00 in Snow Light Snow
1:51 PM 32.0 °F 25.6 °F 28.0 °F 85% 29.95 in 1.8 mi Variable 6.9 mph - 0.00 in Snow Light Snow
2:01 PM 32.0 °F 24.8 °F 28.4 °F 87% 29.89 in 2.5 mi NW 8.1 mph 18.4 mph 0.00 in Snow Light Snow
2:09 PM 32.0 °F 26.4 °F 28.4 °F 87% 29.89 in 4.0 mi Variable 5.8 mph - 0.00 in Snow Light Snow
2:51 PM 32.0 °F 26.4 °F 28.0 °F 85% 29.98 in 7.0 mi Variable 5.8 mph - 0.00 in Snow Light Snow
3:51 PM 32.0 °F 25.6 °F 28.0 °F 85% 30.02 in 9.0 mi NW 6.9 mph - 0.00 in   Overcast
4:51 PM 32.0 °F 26.4 °F 28.9 °F 88% 30.06 in 8.0 mi NW 5.8 mph - N/A   Overcast
5:35 PM 32.0 °F 26.4 °F 28.4 °F 87% 30.00 in 8.0 mi WNW 5.8 mph - N/A   Overcast
5:51 PM 33.1 °F 27.7 °F 28.0 °F 82% 30.08 in 10.0 mi NW 5.8 mph - N/A   Overcast
6:51 PM 32.0 °F 24.8 °F 28.9 °F 88% 30.10 in 7.0 mi NW 8.1 mph - N/A   Overcast
7:24 PM 32.0 °F 25.6 °F 28.4 °F 87% 30.03 in 10.0 mi NW 6.9 mph - N/A   Overcast
7:51 PM 33.1 °F 26.1 °F 28.9 °F 85% 30.11 in 10.0 mi NW 8.1 mph - N/A   Overcast
8:51 PM 33.1 °F 26.1 °F 28.9 °F 85% 30.13 in 10.0 mi NW 8.1 mph - N/A   Overcast
9:43 PM 33.8 °F 28.6 °F 28.4 °F 81% 30.08 in 8.0 mi NW 5.8 mph - 0.00 in Snow Light Snow
9:51 PM 33.1 °F 28.7 °F 28.9 °F 85% 30.15 in 7.0 mi NW 4.6 mph - 0.00 in   Overcast
10:51 PM 32.0 °F 24.8 °F 28.9 °F 88% 30.15 in 6.0 mi WNW 8.1 mph - 0.01 in Snow Light Snow
11:51 PM 32.0 °F 24.8 °F 28.9 °F 88% 30.15 in 9.0 mi NW 8.1 mph - 0.00 in   Overcast